This is the latest recevied weather packets stored in our database for station/object AA1FF. If no packets are shown the sender has not sent any weather packets the latest 10 day(s).
| Time | Temp. | Humidity | Pressure | Rain* | Wind** | Luminosity | Snow |
|---|---|---|---|---|---|---|---|
| 1777733024 | 10.56° C | 84% | 1012 hPa | 0.76 mm | - | 172 W/m² | - |
| 1777732725 | 10° C | 85% | 1012 hPa | 0 mm | - | 139 W/m² | - |
| 1777732424 | 10° C | 86% | 1012 hPa | 0 mm | - | 283 W/m² | - |
| 1777732123 | 10° C | 84% | 1012 hPa | 0.51 mm | - | 148 W/m² | - |
| 1777731824 | 10° C | 85% | 1012 hPa | 0 mm | - | 97 W/m² | - |
| 1777731524 | 10° C | 85% | 1012 hPa | 0 mm | - | 83 W/m² | - |
| 1777731223 | 10° C | 85% | 1012 hPa | 0 mm | - | 75 W/m² | - |
| 1777730923 | 10° C | 85% | 1012 hPa | 0 mm | - | 103 W/m² | - |
| 1777730624 | 10° C | 85% | 1012 hPa | 0 mm | - | 128 W/m² | - |
| 1777730323 | 10° C | 85% | 1012 hPa | 0 mm | - | 196 W/m² | - |
| 1777730023 | 10° C | 87% | 1012 hPa | 0 mm | - | 138 W/m² | - |
| 1777729723 | 10° C | 88% | 1012 hPa | 0 mm | - | 159 W/m² | - |
| 1777729423 | 9.44° C | 86% | 1012 hPa | 0 mm | - | 138 W/m² | - |
| 1777729123 | 9.44° C | 86% | 1012 hPa | 0 mm | - | 187 W/m² | - |
| 1777728824 | 9.44° C | 87% | 1012 hPa | 0 mm | - | 151 W/m² | - |
| 1777728524 | 9.44° C | 89% | 1012 hPa | 0 mm | - | 173 W/m² | - |
| 1777728223 | 9.44° C | 89% | 1012 hPa | 0 mm | - | 224 W/m² | - |
| 1777727924 | 9.44° C | 90% | 1012 hPa | 0 mm | - | 226 W/m² | - |
| 1777727623 | 9.44° C | 91% | 1012 hPa | 0 mm | - | 184 W/m² | - |
| 1777727324 | 8.89° C | 94% | 1012 hPa | 0 mm | - | 358 W/m² | - |
| 1777727024 | 8.89° C | 94% | 1012 hPa | 0 mm | - | 149 W/m² | - |
| 1777726724 | 8.89° C | 93% | 1012 hPa | 0 mm | - | 101 W/m² | - |
| 1777726424 | 8.89° C | 94% | 1012 hPa | 0 mm | - | 107 W/m² | - |
| 1777726124 | 8.33° C | 94% | 1012 hPa | 0 mm | - | 96 W/m² | - |
| 1777725823 | 8.33° C | 93% | 1012 hPa | 0 mm | - | 116 W/m² | - |
* Rain latest hour (hover to see other rain measurements)
** Current wind speed in m/s (hover to see current wind gust speed)